When you browse on this site, cookies collect data to enhance your experience and personalize the content and advertising you see.
Visit our Privacy Policy to learn more. By continuing to use the site, you agree to this use of cookies and data.
  • In Latvia
  • List of Countries
  • For 7 days
  • Water Temperature
  • Satellite Maps
  • Weather Map
  • Weather Widgets
  • user-avatar
    Login

    Hourly Weather Kushnikovo

    Today, 24 June, Monday

    Time Temperature Precipitation Wind Pressure Humidity
    00:00 +23°C° 0 mm 1 mps 756 mmHg 80%
    01:00 +23°C° 0 mm 1 mps 756 mmHg 81%
    02:00 +22°C° 0 mm 1 mps 756 mmHg 82%
    03:00 +22°C° 0 mm 1 mps 756 mmHg 82%
    04:00 +23°C° 0.2 mm 1 mps 756 mmHg 82%
    05:00 +24°C° 0.2 mm 1 mps 756 mmHg 81%
    06:00 +25°C° 0.2 mm 1 mps 756 mmHg 81%
    07:00 +26°C° 0.2 mm 1 mps 756 mmHg 76%
    08:00 +28°C° 0.2 mm 1 mps 756 mmHg 70%
    09:00 +27°C° 0.2 mm 0 mps 756 mmHg 65%
    10:00 +30°C° 0.5 mm 1 mps 756 mmHg 60%
    11:00 +31°C° 0.5 mm 2 mps 756 mmHg 56%
    12:00 +31°C° 0.5 mm 2 mps 756 mmHg 51%
    13:00 +31°C° 0.3 mm 3 mps 756 mmHg 55%
    14:00 +30°C° 0.3 mm 4 mps 756 mmHg 58%
    15:00 +29°C° 0.3 mm 5 mps 756 mmHg 62%
    16:00 +28°C° 1.8 mm 4 mps 756 mmHg 69%
    17:00 +26°C° 1.8 mm 3 mps 756 mmHg 77%
    18:00 +24°C° 1.8 mm 1 mps 756 mmHg 84%
    19:00 +23°C° 0.5 mm 2 mps 756 mmHg 85%
    20:00 +21°C° 0.5 mm 3 mps 757 mmHg 86%
    21:00 +20°C° 0.5 mm 4 mps 757 mmHg 87%
    22:00 +19°C° 0.2 mm 4 mps 757 mmHg 89%
    23:00 +18°C° 0.2 mm 3 mps 757 mmHg 90%

    Tomorrow, 25 June, Tuesday

    Time Temperature Precipitation Wind Pressure Humidity
    00:00 +17°C° 0.2 mm 3 mps 756 mmHg 92%
    01:00 +16°C° 0 mm 3 mps 757 mmHg 90%
    02:00 +16°C° 0 mm 3 mps 757 mmHg 88%
    03:00 +16°C° 0 mm 2 mps 757 mmHg 87%
    04:00 +17°C° 0 mm 3 mps 757 mmHg 85%
    05:00 +17°C° 0 mm 3 mps 758 mmHg 83%
    06:00 +18°C° 0 mm 3 mps 758 mmHg 82%
    07:00 +20°C° 0 mm 4 mps 758 mmHg 75%
    08:00 +21°C° 0 mm 4 mps 758 mmHg 69%
    09:00 +22°C° 0 mm 5 mps 759 mmHg 62%
    10:00 +23°C° 0 mm 5 mps 759 mmHg 58%
    11:00 +23°C° 0 mm 5 mps 759 mmHg 53%
    12:00 +23°C° 0 mm 5 mps 759 mmHg 49%
    13:00 +23°C° 0 mm 5 mps 759 mmHg 46%
    14:00 +23°C° 0 mm 5 mps 759 mmHg 46%
    15:00 +23°C° 0 mm 5 mps 759 mmHg 47%
    16:00 +22°C° 0 mm 4 mps 759 mmHg 52%
    17:00 +22°C° 0 mm 4 mps 759 mmHg 57%
    18:00 +21°C° 0 mm 3 mps 759 mmHg 62%
    19:00 +20°C° 0 mm 3 mps 759 mmHg 66%
    20:00 +18°C° 0 mm 3 mps 760 mmHg 70%
    21:00 +16°C° 0 mm 3 mps 760 mmHg 74%
    22:00 +16°C° 0 mm 3 mps 760 mmHg 76%
    23:00 +14°C° 0 mm 3 mps 760 mmHg 79%

    Day after tomorrow, 26 June, Wednesday

    Time Temperature Precipitation Wind Pressure Humidity
    00:00 +13°C° 0 mm 3 mps 759 mmHg 82%
    01:00 +13°C° 0 mm 3 mps 759 mmHg 83%
    02:00 +12°C° 0 mm 3 mps 759 mmHg 83%
    03:00 +12°C° 0 mm 3 mps 760 mmHg 84%
    04:00 +12°C° 0 mm 4 mps 759 mmHg 81%
    05:00 +13°C° 0 mm 4 mps 759 mmHg 79%
    06:00 +14°C° 0 mm 5 mps 759 mmHg 76%
    07:00 +15°C° 0 mm 5 mps 759 mmHg 70%
    08:00 +16°C° 0 mm 5 mps 759 mmHg 64%
    09:00 +19°C° 0 mm 6 mps 759 mmHg 59%
    10:00 +19°C° 0 mm 6 mps 759 mmHg 56%
    11:00 +20°C° 0 mm 6 mps 759 mmHg 53%
    12:00 +20°C° 0 mm 6 mps 759 mmHg 51%
    13:00 +21°C° 0 mm 6 mps 759 mmHg 50%
    14:00 +21°C° 0 mm 5 mps 758 mmHg 50%
    15:00 +21°C° 0 mm 5 mps 758 mmHg 49%
    16:00 +20°C° 0 mm 4 mps 758 mmHg 53%
    17:00 +20°C° 0 mm 4 mps 758 mmHg 57%
    18:00 +19°C° 0 mm 3 mps 757 mmHg 61%
    19:00 +18°C° 0 mm 2 mps 757 mmHg 64%
    20:00 +16°C° 0 mm 2 mps 757 mmHg 67%
    21:00 +14°C° 0 mm 1 mps 757 mmHg 70%
    22:00 +14°C° 0 mm 1 mps 757 mmHg 70%
    23:00 +14°C° 0 mm 1 mps 756 mmHg 70%

    27 June, Thursday

    Time Temperature Precipitation Wind Pressure Humidity
    00:00 +12°C° 0 mm 0 mps 756 mmHg 70%
    01:00 +12°C° 0 mm 0 mps 756 mmHg 71%
    02:00 +13°C° 0 mm 1 mps 755 mmHg 71%
    03:00 +13°C° 0 mm 1 mps 755 mmHg 72%
    04:00 +13°C° 0.3 mm 1 mps 754 mmHg 77%
    05:00 +13°C° 0.3 mm 1 mps 754 mmHg 82%
    06:00 +13°C° 0.3 mm 1 mps 754 mmHg 88%
    07:00 +13°C° 1.2 mm 2 mps 754 mmHg 90%
    08:00 +13°C° 1.2 mm 2 mps 753 mmHg 93%
    09:00 +12°C° 1.2 mm 3 mps 753 mmHg 95%
    10:00 +12°C° 0.7 mm 3 mps 753 mmHg 94%
    11:00 +12°C° 0.7 mm 3 mps 753 mmHg 93%
    12:00 +12°C° 0.7 mm 4 mps 752 mmHg 92%
    13:00 +13°C° 0 mm 4 mps 752 mmHg 84%
    14:00 +14°C° 0 mm 3 mps 752 mmHg 76%
    15:00 +17°C° 0 mm 3 mps 752 mmHg 68%
    16:00 +17°C° 0 mm 3 mps 752 mmHg 68%
    17:00 +17°C° 0 mm 3 mps 751 mmHg 68%
    18:00 +16°C° 0 mm 2 mps 751 mmHg 68%
    19:00 +15°C° 0 mm 2 mps 751 mmHg 75%
    20:00 +13°C° 0 mm 2 mps 751 mmHg 81%
    21:00 +12°C° 0 mm 1 mps 751 mmHg 87%
    22:00 +12°C° 0 mm 1 mps 751 mmHg 87%
    23:00 +11°C° 0 mm 1 mps 751 mmHg 87%

    28 June, Friday

    Time Temperature Precipitation Wind Pressure Humidity
    00:00 +10°C° 0 mm 0 mps 751 mmHg 87%
    01:00 +10°C° 0 mm 0 mps 750 mmHg 88%
    02:00 +9°C° 0 mm 0 mps 750 mmHg 88%
    03:00 +9°C° 0 mm 0 mps 750 mmHg 88%
    04:00 +11°C° 0 mm 1 mps 749 mmHg 86%
    05:00 +12°C° 0 mm 1 mps 749 mmHg 85%
    06:00 +13°C° 0 mm 2 mps 749 mmHg 83%
    07:00 +13°C° 0 mm 3 mps 748 mmHg 80%
    08:00 +14°C° 0 mm 4 mps 748 mmHg 78%
    09:00 +15°C° 0 mm 5 mps 748 mmHg 75%
    10:00 +14°C° 0.3 mm 5 mps 747 mmHg 81%
    11:00 +14°C° 0.3 mm 4 mps 747 mmHg 87%
    12:00 +13°C° 0.3 mm 4 mps 746 mmHg 93%
    13:00 +13°C° 0.6 mm 5 mps 746 mmHg 93%
    14:00 +13°C° 0.6 mm 5 mps 745 mmHg 93%
    15:00 +14°C° 0.6 mm 6 mps 745 mmHg 93%
    16:00 +14°C° 0.1 mm 6 mps 744 mmHg 92%
    17:00 +15°C° 0.1 mm 6 mps 744 mmHg 90%
    18:00 +16°C° 0.1 mm 6 mps 743 mmHg 89%
    19:00 +16°C° 0.4 mm 6 mps 743 mmHg 91%
    20:00 +15°C° 0.4 mm 5 mps 743 mmHg 93%
    21:00 +15°C° 0.4 mm 5 mps 742 mmHg 95%
    22:00 +15°C° 0.7 mm 5 mps 742 mmHg 94%
    23:00 +15°C° 0.7 mm 5 mps 742 mmHg 94%

    29 June, Saturday

    Time Temperature Precipitation Wind Pressure Humidity
    00:00 +15°C° 0.7 mm 6 mps 741 mmHg 93%
    01:00 +15°C° 0.5 mm 5 mps 741 mmHg 92%
    02:00 +15°C° 0.5 mm 4 mps 741 mmHg 92%
    03:00 +14°C° 0.5 mm 3 mps 740 mmHg 91%
    04:00 +15°C° 0.5 mm 4 mps 740 mmHg 92%
    05:00 +15°C° 0.5 mm 5 mps 740 mmHg 93%
    06:00 +16°C° 0.5 mm 7 mps 740 mmHg 94%
    07:00 +16°C° 2.1 mm 6 mps 739 mmHg 95%
    08:00 +16°C° 2.1 mm 5 mps 739 mmHg 95%
    09:00 +17°C° 2.1 mm 4 mps 739 mmHg 95%
    10:00 +18°C° 1.1 mm 4 mps 739 mmHg 90%
    11:00 +20°C° 1.1 mm 4 mps 740 mmHg 86%
    12:00 +21°C° 1.1 mm 4 mps 740 mmHg 82%
    13:00 +21°C° 0.3 mm 4 mps 740 mmHg 75%
    14:00 +22°C° 0.3 mm 5 mps 740 mmHg 68%
    15:00 +23°C° 0.3 mm 5 mps 740 mmHg 61%
    16:00 +22°C° 0.3 mm 5 mps 740 mmHg 66%
    17:00 +21°C° 0.3 mm 5 mps 740 mmHg 71%
    18:00 +20°C° 0.3 mm 4 mps 741 mmHg 76%
    19:00 +19°C° 0.1 mm 4 mps 741 mmHg 80%
    20:00 +17°C° 0.1 mm 4 mps 741 mmHg 84%
    21:00 +14°C° 0.1 mm 3 mps 742 mmHg 88%
    22:00 +14°C° 0 mm 3 mps 742 mmHg 89%
    23:00 +13°C° 0 mm 3 mps 742 mmHg 90%
    Show more